Big Piney, WY

2:40 AM MDT on September 25, 2017 (GMT -0600)
Big Piney-Marbleton

Weather History for KBPI - March, 2014

Change the Weather History Date:

Friday, March 21, 2014

  Actual Average Record
Temperature  
Mean Temperature 28 °F 30 °F  
Max Temperature 41 °F 44 °F 63 °F (2015)
Min Temperature 14 °F 16 °F -1 °F (1983)
Degree Days  
Heating Degree Days 37 35  
Month to date heating degree days 730 837  
Since 1 July heating degree days 7674 8360  
Cooling Degree Days 0 0  
Month to date cooling degree days 0 0  
Year to date cooling degree days 0 0  
Moisture  
Dew Point 8 °F    
Average Humidity 47    
Maximum Humidity 74    
Minimum Humidity 20    
Precipitation  
Precipitation 0.00 in 0.02 in 0.16 in (2001)
Month to date precipitation 0.10 0.26  
Year to date precipitation 0.14 0.92  
Sea Level Pressure  
Sea Level Pressure 30.02 in    
Wind  
Wind Speed 8 mph (NNE)    
Max Wind Speed 16 mph    
Max Gust Speed 21 mph    
Visibility 10 miles    
Events      
T = Trace of Precipitation, MM = Missing Value Source: NWS Daily Summary

Daily Weather History Graph

Daily Weather History Graph

Search for Another Location

Airport or City:

Trip Planner

Search our weather history database for the weather conditions in past years. The results will help you decide how hot, cold, wet, or windy it might be!

Date:

Astronomy

Mar. 21, 2014 Rise Set
Actual Time 7:21 AM MDT 7:33 PM MDT
Civil Twilight 6:53 AM MDT 8:02 PM MDT
Nautical Twilight 6:20 AM MDT 8:35 PM MDT
Astronomical Twilight 5:47 AM MDT 9:08 PM MDT
Moon 12:01 AM MDT (3/21) 10:10 AM MDT (3/21)
Length of Visible Light 13h 08m
Length of Day
12h 12m
Waning Gibbous, 75% of the Moon is Illuminated
Mar 21
Waning Gibbous
Mar 23
Last Quarter
Mar 30
New
Apr 7
First Quarter
Apr 15
Full

Hourly Weather History & Observations

Time (MDT) Temp. Windchill Dew Point Humidity Pressure Visibility Wind Dir Wind Speed Gust Speed Precip Events Conditions
12:53 AM 25.0 °F 15.5 °F 10.0 °F 53% 29.92 in 10.0 mi NNE 9.2 mph - 0.00 in   Clear
1:53 AM 25.0 °F 13.1 °F 6.1 °F 45% 29.91 in 10.0 mi North 13.8 mph - N/A   Clear
2:53 AM 24.1 °F 12.5 °F 5.0 °F 44% 29.92 in 10.0 mi North 12.7 mph - N/A   Clear
3:53 AM 19.9 °F 7.3 °F 7.0 °F 57% 29.94 in 10.0 mi NNE 12.7 mph - N/A   Clear
4:53 AM 18.0 °F 5.4 °F 7.0 °F 62% 29.97 in 10.0 mi ENE 11.5 mph - N/A   Clear
5:53 AM 17.1 °F 4.3 °F 7.0 °F 65% 29.99 in 10.0 mi NNE 11.5 mph - N/A   Clear
6:53 AM 18.0 °F 12.7 °F 6.1 °F 60% 30.04 in 10.0 mi North 3.5 mph - N/A   Clear
7:53 AM 17.1 °F 10.0 °F 6.1 °F 62% 30.09 in 10.0 mi North 4.6 mph - N/A   Clear
8:53 AM 23.0 °F 15.8 °F 5.0 °F 46% 30.10 in 10.0 mi NNE 5.8 mph - N/A   Clear
9:53 AM 26.1 °F 19.4 °F 3.9 °F 39% 30.12 in 10.0 mi ENE 5.8 mph - N/A   Clear
10:53 AM 28.0 °F 21.7 °F 1.9 °F 33% 30.10 in 10.0 mi East 5.8 mph - N/A   Clear
11:53 AM 30.9 °F - 1.9 °F 29% 30.07 in 10.0 mi North - - N/A   Clear
12:53 PM 33.1 °F 25.5 °F 1.9 °F 27% 30.07 in 10.0 mi South 9.2 mph - N/A   Clear
1:53 PM 35.1 °F 30.1 °F -0.0 °F 23% 30.04 in 10.0 mi Variable 5.8 mph - N/A   Clear
2:53 PM 37.0 °F 32.4 °F 1.0 °F 22% 30.01 in 10.0 mi ESE 5.8 mph - 0.00 in   Clear
3:53 PM 39.9 °F 36.7 °F 1.9 °F 20% 29.99 in 10.0 mi Variable 4.6 mph - N/A   Clear
4:53 PM 39.0 °F 30.3 °F 14.0 °F 36% 29.99 in 10.0 mi NE 16.1 mph - N/A   Clear
5:53 PM 35.1 °F 25.5 °F 12.9 °F 40% 30.02 in 10.0 mi NE 15.0 mph - N/A   Clear
6:53 PM 33.1 °F 24.9 °F 10.9 °F 40% 30.02 in 10.0 mi NNE 10.4 mph - N/A   Clear
7:53 PM 27.0 °F 18.7 °F 12.9 °F 56% 30.06 in 10.0 mi NNW 8.1 mph - N/A   Clear
8:53 PM 25.0 °F 14.8 °F 15.1 °F 66% 30.04 in 10.0 mi NNW 10.4 mph - N/A   Clear
9:53 PM 24.1 °F 16.0 °F 15.1 °F 69% 30.03 in 10.0 mi North 6.9 mph - N/A   Clear
10:53 PM 25.0 °F - 16.0 °F 69% 30.02 in 10.0 mi Calm Calm - N/A   Clear
11:53 PM 23.0 °F 17.0 °F 16.0 °F 74% 30.02 in 10.0 mi SSE 4.6 mph - N/A   Clear